Regional Weather Roundup
Issued by NWS

Home | Current Version | Previous Version | Graphics & Text | Print | Product List | Glossary On
Versions: 1 2 3 4 5 6 7 8 9 10 11 12 13 14 15 16 17 18 19 20 21 22 23 24 25 26 27 28 29 30 31 32 33 34 35 36 37 38 39 40 41 42 43 44 45 46 47 48 49 50
000
ASUS43 KFSD 162102
RWRSD

WEATHER ROUNDUP FOR SOUTH DAKOTA
NATIONAL WEATHER SERVICE SIOUX FALLS SD
400 PM CDT WED AUG 16 2017

NOTE: "FAIR" INDICATES FEW OR NO CLOUDS BELOW 12,000 FEET WITH NO
SIGNIFICANT WEATHER AND/OR OBSTRUCTIONS TO VISIBILITY.


SDZ001>005-009-010-012>017-162200-
NORTHWEST AND NORTH CENTRAL SOUTH DAKOTA

CITY           SKY/WX    TMP DP  RH WIND       PRES   REMARKS
BUFFALO          N/A     80  49  33 VRB3      29.92F
FAITH            N/A     80  48  32 N12       29.96S
MOBRIDGE       CLOUDY    72  62  71 N12       29.89S
$$

SDZ012>016-024>037-041>051-057-063-072>074-162200-
SOUTHWEST AND SOUTH CENTRAL SOUTH DAKOTA

CITY           SKY/WX    TMP DP  RH WIND       PRES   REMARKS
RAPID CTY ARPT MOSUNNY   79  48  33 NW9       30.00F
PIERRE         CLOUDY    68  59  73 NW14      29.89F
CUSTER         SUNNY     71  39  31 VRB6      30.10F
PHILIP         CLOUDY    80  54  40 N15       29.93F
PINE RIDGE     MOSUNNY   78  54  43 N12G22    30.00F
SPEARFISH      FAIR      75  45  33 NE10G16   30.04F
WINNER         LGT RAIN  65  63  93 NW12      29.90F
$$

SDZ004>011-016>023-039-040-162200-
NORTHEAST SOUTH DAKOTA

CITY           SKY/WX    TMP DP  RH WIND       PRES   REMARKS
ABERDEEN       LGT RAIN  70  67  90 N14       29.82F
WATERTOWN      LGT RAIN  67  66  97 NE8       29.78F
BROOKINGS      LGT RAIN  66  65  96 N10       29.77F
SISSETON         N/A     68  67  96 N6        29.80F
$$

SDZ017-020-022-023-036>040-048>070-162200-
SOUTHEAST SOUTH DAKOTA

CITY           SKY/WX    TMP DP  RH WIND       PRES   REMARKS
SIOUX FALLS    HVY RAIN  68  68 100 NW14      29.73S FOG
HURON          LGT RAIN  67  67 100 NW16      29.79F FOG
CHAMBERLAIN    LGT RAIN  65  65 100 W15       29.87S
MITCHELL       RAIN      67  66  97 W10       29.80S FOG
YANKTON        CLOUDY    69  66  90 NW16      29.78R
$$

ABBREVIATIONS USED IN REMARKS
   TC - TEMPERATURE IN CELSIUS
  WCI - WIND CHILL INDEX
   HX - HEAT INDEX
  VSB - VISIBILITY





USA.gov is the U.S. government's official web portal to all federal, state and local government web resources and services.